FW4487 Weather Reports


time (UTC)temp
C
wind
direction
speed
KPH
gust
KPH
rain 1hr
cm
rain 24hr
cm
rain mn
cm
humidity
%
barometer
mb
20190919133251 18 277 0.0 0.0 0.00 0.03 0.03 93 1019.7
20190919122855 18 269 0.0 0.0 0.00 0.03 0.03 93 1019.7
20190919120347 18 264 0.0 0.0 0.00 0.03 0.03 90 1020.0
20190919115844 19 259 0.0 0.0 0.00 0.03 0.03 89 1020.0
20190919113444 20 243 0.0 0.0 0.00 0.03 0.03 86 1020.0
20190919112947 20 254 0.0 0.0 0.00 0.03 0.03 85 1020.0
20190919110442 21 170 0.0 0.0 0.00 0.03 0.03 82 1020.1
20190919105943 21 141 0.0 0.0 0.00 0.03 0.03 83 1020.0
20190919103431 21 114 0.0 0.0 0.00 0.03 0.03 80 1020.1
20190919102933 21 115 0.0 0.0 0.00 0.03 0.03 79 1020.1
20190919100427 21 107 0.0 0.0 0.00 0.03 0.03 74 1020.1
20190919095929 21 111 0.0 0.0 0.00 0.03 0.03 73 1020.1
20190919093424 22 111 0.0 0.0 0.00 0.03 0.03 72 1020.0
20190919092925 22 117 0.0 0.0 0.00 0.03 0.03 72 1020.0
20190919090420 21 116 0.0 0.0 0.00 0.03 0.03 75 1019.9
20190919085921 21 116 0.0 0.0 0.00 0.03 0.03 76 1019.9
20190919083416 20 107 0.0 0.0 0.00 0.03 0.03 80 1019.6
20190919082918 18 107 0.0 0.0 0.00 0.03 0.03 83 1019.6
20190919080413 16 107 0.0 0.0 0.00 0.03 0.03 96 1019.5
20190919075914 16 107 0.0 0.0 0.00 0.03 0.03 97 1019.6
20190919073409 13 107 0.0 0.0 0.00 0.03 0.03 97 1019.4
20190919072910 13 107 0.0 0.0 0.00 0.03 0.03 96 1019.4
20190919070406 13 107 0.0 0.0 0.03 0.03 0.03 96 1019.3
20190919065907 13 107 0.0 0.0 0.03 0.03 0.03 96 1019.4
20190919063402 13 107 0.0 0.0 0.03 0.03 0.03 96 1019.1
20190919062903 13 107 0.0 0.0 0.03 0.03 0.03 96 1019.2
20190919060358 13 107 0.0 0.0 0.00 0.00 0.00 96 1018.9
20190919055900 13 107 0.0 0.0 0.00 0.00 0.00 96 1018.9
20190919053356 13 107 0.0 0.0 0.00 0.00 0.00 96 1018.8
20190919052856 13 107 0.0 0.0 0.00 0.00 0.00 96 1018.8
20190919050352 13 107 0.0 0.0 0.00 0.00 0.00 96 1018.8
20190919045853 13 107 0.0 0.0 0.00 0.00 0.00 96 1018.9
20190919043347 13 107 0.0 0.0 0.00 0.00 0.00 95 1018.8
20190919042850 13 107 0.0 0.0 0.00 0.00 0.00 95 1018.8
20190919040345 13 107 0.0 0.0 0.00 0.00 0.00 95 1018.9
20190919035846 13 107 0.0 0.0 0.00 0.00 0.00 95 1018.9
20190919033340 13 107 0.0 0.0 0.00 0.00 0.00 94 1019.1
20190919032842 13 107 0.0 0.0 0.00 0.00 0.00 94 1019.1
20190919030337 15 107 0.0 0.0 0.00 0.00 0.00 95 1019.2
20190919025838 15 107 0.0 0.0 0.00 0.00 0.00 95 1019.2
20190919023439 15 107 0.0 0.0 0.00 0.00 0.00 95 1019.3
20190919022941 15 107 0.0 0.0 0.00 0.00 0.00 95 1019.3
20190919020436 15 107 0.0 0.0 0.00 0.00 0.00 94 1019.6
20190919015937 15 107 0.0 0.0 0.00 0.00 0.00 94 1019.6
20190919013433 15 107 0.0 0.0 0.00 0.00 0.00 94 1019.8
20190919012933 15 107 0.0 0.0 0.00 0.00 0.00 94 1019.9
20190919010428 15 107 0.0 0.0 0.00 0.00 0.00 96 1020.3
20190919005929 15 107 0.0 0.0 0.00 0.00 0.00 96 1020.3
20190919003424 15 107 0.0 0.0 0.00 0.00 0.00 96 1020.5
20190919002925 15 107 0.0 0.0 0.00 0.00 0.00 96 1020.6
20190919000421 15 107 0.0 0.0 0.00 0.00 0.00 95 1020.6
20190918235922 15 107 0.0 0.0 0.00 0.00 0.00 95 1020.6
20190918233418 15 107 0.0 0.0 0.00 0.00 0.00 96 1020.8
20190918232918 15 107 0.0 0.0 0.00 0.00 0.00 96 1020.9
20190918230412 15 107 0.0 0.0 0.00 0.00 0.00 95 1020.9
20190918225915 15 107 0.0 0.0 0.00 0.00 0.00 95 1020.9
20190918223411 15 107 0.0 0.0 0.00 0.00 0.00 94 1020.9
20190918222911 15 107 0.0 0.0 0.00 0.00 0.00 94 1020.8
20190918220405 16 107 0.0 0.0 0.00 0.00 0.00 94 1020.9
20190918215907 16 107 0.0 0.0 0.00 0.00 0.00 94 1020.8
20190918213403 16 107 0.0 0.0 0.00 0.00 0.00 94 1020.9
20190918212904 16 107 0.0 0.0 0.00 0.00 0.00 94 1020.8
20190918210400 16 107 0.0 0.0 0.00 0.00 0.00 94 1020.7
20190918205900 16 107 0.0 0.0 0.00 0.00 0.00 95 1020.7
20190918203357 16 107 0.0 0.0 0.00 0.00 0.00 94 1020.3
20190918202857 16 107 0.0 0.0 0.00 0.00 0.00 94 1020.2
20190918200352 17 107 0.0 0.0 0.00 0.00 0.00 94 1020.1
20190918195853 17 107 0.0 0.0 0.00 0.00 0.00 94 1020.1
20190918193349 17 107 0.0 0.0 0.00 0.00 0.00 94 1020.0
20190918192849 17 107 0.0 0.0 0.00 0.00 0.00 94 1019.9
20190918190345 17 107 0.0 0.0 0.00 0.00 0.00 94 1019.8
20190918185845 17 107 0.0 0.0 0.00 0.00 0.00 93 1019.7
20190918183341 17 107 0.0 0.0 0.00 0.00 0.00 93 1019.6
20190918182843 17 107 0.0 0.0 0.00 0.00 0.00 93 1019.6
20190918180337 17 255 0.0 0.0 0.00 0.00 0.00 93 1019.4
20190918175839 17 255 0.0 0.0 0.00 0.00 0.00 93 1019.3
20190918173441 17 251 0.0 0.0 0.00 0.00 0.00 93 1019.4
20190918172941 17 251 0.0 0.0 0.00 0.00 0.00 93 1019.4
20190918170437 17 251 0.0 0.0 0.00 0.00 0.00 91 1019.4
20190918165939 17 251 0.0 0.0 0.00 0.00 0.00 92 1019.4
20190918163433 17 258 0.0 0.0 0.00 0.00 0.00 90 1019.5
20190918162935 17 191 0.0 0.0 0.00 0.00 0.00 90 1019.5
20190918160429 18 261 0.0 0.0 0.00 0.00 0.00 88 1019.3
20190918155930 18 261 0.0 0.0 0.00 0.00 0.00 87 1019.3
20190918153426 18 264 0.0 0.0 0.00 0.00 0.00 87 1019.4
20190918152927 18 262 0.0 0.0 0.00 0.00 0.00 87 1019.5